Wind_Speed
85 82 78 74 71 70 70 68 66 65 66 66 68 69 67 65 61 57 54 50 49 49 50 50 49 48 46 44 43 41 39 38 37 38 38 37 35 34 34 33 31 29 31 34 33 30 28 27 28 28 29 32 36 37 37 36 37 37 38 38 39 40 41 42 42 43 43 43 43 42 42 42 42 44 46 48 49 51 51 50 48 47 47 47 48 48
86 83 79 76 73 72 72 70 69 71 72 69 68 69 68 67 64 62 59 55 52 51 51 52 51 50 48 45 44 42 41 41 41 40 40 41 39 37 36 35 33 31 31 34 34 32 31 30 30 31 34 38 39 40 39 39 39 40 41 41 41 43 44 44 44 44 44 44 44 44 43 43 44 46 48 50 51 52 52 51 50 49 49 49 49 50
86 83 81 79 76 75 75 73 72 73 75 72 70 69 68 66 66 66 64 62 59 57 55 54 52 50 47 46 45 45 45 44 45 44 42 43 42 40 39 37 36 35 35 37 39 40 39 38 37 39 40 42 42 42 42 42 42 43 43 44 44 45 45 45 45 45 46 46 46 45 45 45 47 48 50 51 52 53 53 53 52 51 51 51 51 52
85 82 81 79 79 79 78 77 75 74 75 74 71 68 66 65 67 67 65 65 63 60 58 56 54 51 47 46 47 48 48 47 46 45 43 43 43 41 40 40 40 39 40 42 44 45 45 44 44 44 44 44 44 44 44 44 44 45 46 46 47 47 47 47 46 46 47 48 48 47 47 47 48 50 51 52 54 55 56 56 55 54 54 54 54 54
84 81 79 80 82 82 80 78 77 77 76 75 74 70 66 66 66 65 65 65 63 61 59 57 55 51 47 47 48 47 49 49 46 45 44 45 45 42 41 41 41 42 42 44 46 47 47 47 47 46 46 45 45 46 46 46 47 48 48 48 48 48 48 48 47 47 48 49 49 49 49 49 50 51 52 54 55 57 58 58 58 57 57 57 56 56
87 83 83 84 84 83 81 79 77 77 76 75 75 73 70 69 67 64 64 63 61 60 60 59 56 53 51 51 50 49 48 48 47 46 46 46 47 45 43 42 41 41 42 44 46 47 48 49 49 49 48 47 47 48 49 49 49 50 50 50 49 49 49 48 49 49 50 51 51 51 51 51 52 53 55 56 58 59 60 60 60 60 59 59 59 59
91 90 89 88 86 83 81 79 78 78 77 76 75 74 74 72 69 67 66 64 62 60 60 61 59 58 55 54 54 54 51 50 49 49 49 49 48 46 45 44 43 42 43 44 46 48 49 51 52 52 52 51 51 51 51 52 52 52 51 51 50 49 50 50 50 51 52 53 53 54 54 54 55 56 57 59 61 61 62 62 62 62 61 61 61 62
93 94 93 92 89 87 84 80 79 80 79 77 76 75 75 73 70 70 69 68 66 64 63 63 61 59 58 57 56 57 56 55 53 53 53 52 50 48 47 47 47 47 46 47 48 49 50 52 53 54 55 55 55 54 54 54 54 54 53 52 51 51 51 52 53 54 55 56 56 56 57 57 58 59 61 63 64 64 64 64 64 64 64 63 63 63
94 95 94 94 92 90 87 83 82 82 81 79 78 77 76 74 72 71 71 70 69 69 69 67 64 62 61 61 60 59 59 58 57 57 57 55 53 53 52 52 51 51 52 52 52 52 52 53 54 55 56 58 58 58 57 56 56 56 55 54 53 53 54 55 56 57 59 59 59 59 60 61 62 63 64 66 67 67 67 67 67 66 66 66 66 66
93 94 94 94 93 92 90 88 87 85 83 81 80 79 78 76 74 73 72 71 70 70 70 69 69 67 64 63 63 61 60 61 61 61 60 59 59 59 59 58 57 56 56 55 55 54 53 54 55 56 57 59 60 60 60 60 59 58 57 56 55 56 58 59 60 61 61 61 61 62 63 64 65 66 67 68 69 69 69 70 70 69 69 68 68 68
93 93 92 92 91 90 90 90 91 89 85 83 82 80 79 77 76 75 74 73 72 70 68 69 70 70 67 65 64 63 62 63 63 63 63 63 63 63 62 62 61 60 59 58 57 57 57 58 58 59 60 61 62 63 64 64 63 62 61 59 59 60 61 62 63 64 64 64 64 65 66 66 67 68 69 70 71 72 72 72 72 72 72 71 70 70
92 90 88 87 87 87 88 90 90 88 86 85 84 82 80 79 79 78 77 76 73 69 67 68 71 71 67 65 66 66 64 64 64 63 64 65 65 66 65 63 62 61 61 60 60 60 61 62 63 63 63 63 64 65 66 66 66 65 64 64 63 64 65 66 66 66 67 67 67 68 69 69 69 70 71 72 74 74 75 75 74 74 74 73 73 72
90 88 85 83 83 84 86 87 87 86 84 84 84 83 82 82 81 80 78 76 74 69 67 69 73 72 67 66 69 69 67 67 67 66 66 65 66 67 67 66 64 63 62 62 62 62 63 65 66 66 65 66 66 67 67 68 68 68 67 67 67 67 68 68 69 69 69 70 71 71 72 72 72 72 73 75 76 77 77 77 77 76 76 75 75 74
90 88 86 84 83 83 84 85 84 82 82 82 82 82 82 82 81 80 78 77 74 70 69 72 75 73 68 68 71 71 70 70 69 69 68 67 68 69 70 69 67 65 65 64 65 65 66 67 67 68 68 68 68 68 68 69 69 69 69 69 69 70 70 70 70 71 72 73 74 74 74 74 74 75 76 78 78 79 79 79 79 79 79 78 77 77
91 89 88 86 84 84 84 84 83 82 82 83 83 83 84 83 81 80 79 78 76 74 74 76 77 73 69 68 71 72 72 70 69 70 70 71 72 72 72 71 69 68 67 67 67 68 68 68 69 69 70 70 71 71 71 71 70 70 70 71 71 71 71 72 73 74 75 76 77 77 76 76 77 78 79 80 80 81 81 81 82 81 81 80 80 79
93 91 89 88 87 86 86 85 85 85 85 84 84 85 85 83 82 81 81 80 80 79 78 79 77 73 70 70 71 71 72 72 72 73 73 74 74 75 74 73 72 70 70 71 71 70 70 70 70 71 72 72 73 74 74 74 73 73 72 72 73 73 74 75 76 77 78 79 79 79 79 79 80 81 82 82 83 83 84 84 84 84 83 83 82 82
94 92 91 91 90 89 89 89 89 89 87 85 85 85 84 83 84 84 84 83 82 81 79 78 76 75 74 73 72 72 73 75 75 75 75 75 75 75 75 75 73 73 73 73 73 72 72 72 72 73 74 75 76 76 76 77 77 76 76 76 76 76 77 78 79 80 81 81 82 82 82 82 83 84 85 85 86 86 86 86 86 86 85 85 84 84
97 95 93 93 93 92 91 91 92 91 90 88 87 85 85 87 87 87 86 84 83 81 79 77 77 77 76 74 72 74 77 78 79 78 78 77 77 77 76 75 75 76 76 76 75 74 74 74 75 76 77 78 78 78 79 79 79 79 79 79 79 80 80 81 81 82 83 84 84 85 85 86 86 87 88 88 88 89 89 89 89 88 88 87 87 86
99 99 98 97 96 96 95 94 95 93 92 91 90 88 89 90 89 88 86 83 82 81 79 79 81 80 78 76 76 78 81 83 83 81 80 79 80 79 79 78 78 79 79 78 77 76 77 78 79 80 81 81 81 81 81 81 81 81 82 82 82 82 83 83 84 85 86 87 87 88 88 89 90 90 91 91 91 91 91 91 91 91 90 90 89 88
100 101 101 100 98 98 98 97 96 94 93 94 92 90 90 90 89 88 86 84 84 84 82 81 82 83 82 81 82 83 85 85 84 83 82 82 82 82 82 82 82 82 81 80 80 79 80 81 82 83 83 84 84 84 84 83 83 83 84 84 84 85 85 86 87 88 89 89 90 91 92 92 93 93 93 93 93 93 93 93 93 93 92 92 91 91
103 102 102 102 101 101 99 98 96 96 96 96 94 93 93 92 91 90 89 87 87 87 85 83 83 83 82 83 83 84 85 85 84 84 85 85 85 85 86 86 86 85 84 83 83 83 84 85 85 85 85 86 87 87 86 86 86 85 86 86 86 87 87 89 90 91 91 92 93 94 94 95 95 95 95 94 94 95 95 95 95 95 94 93 93 93
108 107 105 104 104 103 101 100 99 100 100 99 98 97 97 96 96 95 94 93 91 90 88 85 84 83 83 85 86 86 86 86 86 87 87 87 87 86 87 87 87 87 87 87 87 88 88 88 88 88 88 89 89 89 88 88 88 88 88 88 88 89 90 91 93 94 94 95 96 96 97 97 97 96 96 96 96 97 97 97 97 97 96 96 95 96
113 112 111 110 108 107 105 105 105 104 104 104 103 101 100 100 99 98 97 96 95 94 93 92 91 88 87 89 90 90 90 89 89 88 87 87 86 86 87 87 88 89 90 90 91 92 92 92 92 92 92 92 92 91 91 90 89 89 89 90 90 91 93 94 95 96 97 97 98 98 98 98 98 98 98 98 99 100 100 100 99 99 98 98 98 97
117 117 116 115 114 113 111 111 110 109 107 106 105 103 102 101 100 99 98 97 97 97 96 96 94 90 88 91 92 92 91 90 89 88 88 88 88 88 89 90 91 92 92 94 95 95 96 95 96 96 96 96 95 94 93 92 91 91 91 91 92 94 95 97 97 98 99 99 100 100 100 100 100 100 100 101 102 102 102 102 101 100 100 100 99 99
118 120 120 119 119 118 117 116 114 112 109 107 105 104 103 102 102 102 102 101 100 99 98 97 93 88 88 90 91 92 91 90 90 90 89 90 90 91 92 93 94 95 95 97 97 98 98 99 99 99 99 99 98 97 96 95 94 94 94 94 95 96 98 98 99 100 101 101 102 102 102 102 102 102 103 103 104 104 104 103 102 102 101 101 101 100
118 120 121 122 121 120 118 116 113 111 110 109 107 106 106 105 105 105 105 105 103 101 100 98 93 89 89 91 92 93 93 93 93 93 92 93 93 94 95 96 96 97 98 99 100 101 101 101 102 102 101 101 100 100 99 98 98 98 97 98 98 99 100 100 101 102 103 103 104 104 104 104 104 104 105 105 106 105 105 104 103 103 103 103 102 102
116 118 119 120 120 119 118 115 113 113 113 113 111 110 110 109 109 109 109 107 104 102 101 99 95 92 91 91 93 94 95 96 96 96 96 96 97 97 98 98 99 100 101 102 103 103 103 103 103 103 103 102 102 102 102 101 101 101 101 101 101 102 102 103 104 104 105 105 105 106 106 106 106 106 106 106 106 106 106 105 105 105 104 104 104 104
113 114 114 115 116 116 117 116 116 117 116 115 114 113 113 113 113 113 112 108 106 105 102 98 96 94 91 92 94 96 98 98 99 99 100 100 101 101 101 102 103 104 104 105 105 105 105 105 105 104 104 104 104 104 104 104 104 104 104 104 104 104 105 106 106 107 107 107 107 107 107 107 107 107 108 108 108 107 107 107 107 107 106 106 106 106
112 111 110 111 112 113 114 115 116 117 116 115 114 113 113 114 114 113 111 108 107 106 101 97 98 96 94 95 98 99 100 101 102 103 103 104 104 104 105 106 106 106 107 107 107 107 107 107 107 106 106 106 106 106 106 106 106 105 105 105 105 106 107 108 108 109 109 109 109 109 109 108 109 109 109 109 109 109 109 108 108 108 108 108 107 107
112 109 108 109 110 111 112 114 115 116 116 115 115 114 113 113 113 112 110 108 107 105 101 99 100 99 98 100 101 102 103 105 105 106 107 107 107 107 108 108 108 109 109 109 109 109 109 109 109 108 108 108 108 108 107 107 107 106 106 107 107 108 108 109 109 110 110 110 110 110 110 110 110 111 111 111 111 111 110 110 109 109 109 109 109 109
115 111 108 108 109 110 111 112 113 114 115 116 116 115 115 114 113 111 108 106 106 105 102 103 104 102 101 104 105 105 107 107 108 109 109 109 109 109 109 110 110 111 111 111 111 111 111 111 110 110 110 110 109 109 108 108 108 108 108 109 109 109 110 110 110 110 110 110 110 111 111 112 112 112 112 112 112 112 112 111 111 110 110 110 110 110
117 114 112 110 109 109 109 110 111 113 115 116 116 116 114 113 112 109 107 106 107 107 106 107 106 103 103 106 108 108 109 110 110 111 110 110 110 110 111 112 112 112 112 113 112 112 112 112 111 111 111 111 110 110 109 109 109 110 110 110 111 111 111 111 111 111 111 111 111 112 112 113 113 114 114 113 113 113 113 113 112 112 112 112 112 112
118 117 116 114 112 110 108 108 110 112 116 116 114 112 111 110 110 110 109 110 110 111 110 110 108 106 106 109 110 110 111 112 112 112 112 112 112 111 112 112 113 113 113 113 112 112 112 112 112 112 111 111 111 111 111 111 111 111 112 112 112 112 112 112 112 112 112 113 113 114 114 114 115 115 114 114 114 114 114 114 113 113 113 113 113 114
118 118 118 118 118 115 112 111 111 114 115 111 107 107 108 109 110 111 112 111 111 112 112 111 109 108 108 109 109 110 111 113 114 114 114 113 112 111 111 112 113 113 113 112 112 112 113 112 112 112 112 111 112 112 112 112 112 112 112 112 112 112 112 113 113 113 114 115 115 116 116 116 116 116 116 115 115 115 115 115 114 115 115 115 115 115
117 117 117 118 119 119 117 116 117 117 112 104 101 103 105 107 109 111 110 110 110 111 111 111 110 109 109 110 110 111 112 113 115 115 114 113 112 111 112 112 112 112 112 112 112 112 113 113 113 113 113 113 113 113 113 112 112 112 112 112 113 113 114 115 115 116 116 117 117 117 117 117 117 117 116 116 116 116 116 116 116 116 116 116 116 117
118 118 117 117 119 119 119 119 120 118 111 104 101 101 102 104 106 108 108 108 109 111 111 111 111 110 111 111 111 111 111 112 114 114 113 112 111 112 112 112 112 112 113 113 113 113 113 114 114 114 114 114 113 113 112 112 113 113 114 115 115 116 116 117 117 118 118 118 118 118 118 118 118 117 117 117 117 117 118 118 118 118 118 118 118 119
120 120 119 119 119 119 119 119 120 119 114 109 105 101 100 101 103 105 107 107 107 109 110 110 109 109 109 110 110 110 111 111 112 111 110 110 111 111 112 112 112 113 113 113 113 113 113 114 114 114 114 114 114 114 114 115 116 116 117 117 117 118 118 119 119 119 119 119 119 119 119 119 119 118 119 119 119 119 119 119 119 120 120 120 120 121
120 120 121 120 120 121 120 120 121 120 115 109 105 102 101 103 105 107 109 107 104 104 105 105 105 105 106 108 109 110 111 111 109 107 107 110 112 113 113 113 114 115 115 115 115 115 115 115 116 116 117 117 117 118 118 118 118 118 118 119 119 120 120 120 120 120 120 120 120 120 120 120 120 120 120 120 120 120 120 121 121 121 122 122 123 124
119 119 120 121 122 122 122 121 121 119 113 107 104 104 105 107 109 112 114 109 103 101 103 103 104 104 106 108 110 111 113 112 109 107 109 114 117 118 117 117 117 117 117 117 117 117 117 118 118 119 119 120 120 119 119 119 119 119 120 120 120 120 120 120 121 121 121 121 121 121 120 120 120 120 120 120 121 121 122 122 123 124 125 126 126 127
117 118 119 120 120 120 120 120 120 118 112 107 105 106 108 110 113 116 117 112 105 104 106 107 108 110 112 114 115 116 116 115 113 112 114 118 120 120 120 120 120 119 119 118 118 118 118 119 119 119 120 120 119 119 119 119 119 119 120 120 120 120 120 121 121 121 121 121 121 121 121 121 121 121 122 122 123 124 125 126 126 127 128 128 129 129
117 118 118 118 118 118 118 118 118 116 111 107 105 106 110 114 116 118 117 113 109 107 108 110 115 118 119 119 120 120 120 119 118 117 117 118 119 120 120 121 121 120 120 119 119 119 118 119 119 119 119 119 119 119 119 119 119 120 120 120 121 121 121 121 121 121 121 122 122 122 122 123 123 124 124 125 126 126 127 128 129 129 129 130 130 131
117 117 117 117 117 117 117 117 117 115 109 104 104 106 109 113 114 114 113 113 112 111 110 112 116 120 121 121 120 120 120 120 120 119 118 118 118 119 119 120 120 119 119 119 119 118 119 119 119 120 120 120 120 120 121 121 121 121 121 122 122 122 122 122 122 122 123 123 124 124 125 126 126 127 127 127 128 128 129 130 130 131 132 133 134 135
116 117 117 117 117 117 117 117 117 112 104 100 101 104 107 109 111 112 112 113 114 114 113 112 114 117 118 118 118 118 118 117 117 116 116 116 116 116 116 117 118 118 118 119 119 120 120 121 121 121 122 122 122 122 122 122 122 122 122 122 122 123 123 123 124 124 124 125 125 126 127 127 127 128 128 129 130 130 131 132 133 134 136 137 138 140
114 116 117 116 116 117 117 116 113 108 102 101 104 107 109 110 112 113 113 114 115 115 113 112 112 114 116 116 116 117 117 117 117 116 115 115 115 116 116 117 118 119 120 120 121 121 121 122 122 122 122 122 122 122 122 122 122 122 122 123 123 124 124 124 124 125 125 126 126 127 127 128 128 129 130 131 132 134 135 136 137 139 140 142 143 144
113 114 114 114 114 115 115 114 111 108 105 105 107 110 112 113 113 114 115 115 115 114 113 112 112 114 115 116 116 116 117 117 117 117 117 117 117 117 118 119 119 120 120 121 121 121 121 121 121 121 121 121 121 121 122 122 122 122 122 123 123 123 124 124 125 125 126 127 127 128 129 130 131 132 134 135 137 138 139 140 142 143 144 146 147 148
114 113 114 114 114 115 115 113 110 108 107 107 108 110 112 113 114 115 116 116 115 114 113 113 113 114 115 116 116 116 116 117 117 118 118 118 118 118 118 118 119 119 119 119 119 119 119 120 120 120 120 121 121 121 122 122 122 122 123 123 124 124 125 126 126 127 128 129 129 131 132 133 135 136 138 140 141 142 144 145 146 147 148 149 151 151
115 115 115 115 115 115 114 112 110 110 109 109 110 111 112 113 114 116 117 117 116 115 114 114 114 115 116 117 117 117 117 117 117 117 117 117 117 117 117 117 117 117 117 117 118 118 119 119 120 121 121 122 122 122 123 123 124 124 125 125 126 126 127 128 128 129 131 132 133 135 136 138 140 141 142 144 145 147 148 149 150 150 151 152 152 152
116 116 116 115 115 114 113 112 112 112 113 112 113 113 113 114 115 115 116 116 116 115 115 115 115 115 116 116 116 116 116 116 116 116 117 117 118 118 118 118 118 118 118 118 119 119 120 120 121 122 122 123 123 124 124 125 125 126 127 127 128 129 130 131 132 134 135 137 138 140 141 142 143 144 146 147 148 149 150 150 151 151 151 151 151 151
117 116 116 116 115 115 114 113 113 114 114 114 115 115 115 116 116 117 117 117 117 116 116 116 116 116 116 116 116 116 116 116 116 117 117 118 119 119 119 119 120 120 120 120 121 121 122 122 123 123 124 124 125 125 126 126 127 128 129 130 131 133 134 135 137 138 139 140 142 143 144 145 146 147 148 149 149 150 149 149 149 149 148 149 150 151
117 116 116 116 116 116 115 114 115 116 116 116 116 117 117 118 118 117 117 117 117 117 117 117 116 116 116 117 117 117 117 118 118 119 119 120 120 121 121 120 121 121 121 121 122 122 123 123 124 124 125 126 127 127 128 129 131 132 133 134 135 137 138 139 140 141 142 143 144 145 146 147 148 149 149 149 149 148 148 147 148 148 148 149 150 151
117 117 117 117 117 117 116 115 116 117 118 118 117 118 118 118 118 117 117 117 117 117 117 117 117 117 118 118 118 119 119 119 120 120 120 121 121 121 121 121 122 122 122 123 123 123 124 125 126 127 128 129 130 131 132 134 135 136 137 138 138 139 140 141 142 143 144 145 146 147 147 148 148 148 148 148 148 148 147 147 148 149 150 150 151 152
Wind_Direction
222 222 223 223 223 222 223 223 222 224 227 229 229 229 228 228 229 231 235 239 242 244 246 247 247 248 250 252 255 259 259 261 262 259 254 254 256 258 261 264 267 271 276 277 277 275 278 282 283 280 280 288 294 298 300 301 301 302 303 305 307 309 311 314 315 316 317 317 317 316 315 315 316 318 321 322 323 324 325 324 323 321 320 319 318 318
223 224 224 225 224 224 224 223 223 224 226 228 230 231 231 231 231 233 234 236 238 242 245 245 247 248 250 253 257 260 260 261 263 262 257 254 256 259 261 263 263 264 271 274 273 273 275 278 277 277 280 286 290 294 296 297 298 299 300 302 304 306 308 310 312 313 314 315 315 315 314 313 315 317 319 320 321 322 322 322 321 319 318 317 316 316
225 224 225 225 225 225 225 225 224 225 226 228 229 231 232 232 233 234 235 237 239 242 244 245 247 248 251 254 256 258 259 260 260 261 260 256 256 260 262 264 264 264 266 269 270 272 274 276 277 278 280 284 287 289 292 293 295 296 298 300 302 303 305 308 309 310 311 312 313 313 312 312 313 315 317 318 319 320 320 320 319 318 316 315 314 314
227 226 226 226 226 226 227 227 227 228 228 229 230 231 232 233 233 235 236 238 240 241 243 246 248 249 250 252 255 257 257 259 258 259 260 257 256 261 263 264 266 268 268 270 272 274 275 277 278 279 280 282 284 287 289 291 293 295 296 298 299 301 303 305 306 307 308 310 311 312 311 311 312 314 315 316 317 317 318 319 318 316 315 313 313 313
226 226 227 227 228 228 228 229 230 230 231 231 231 232 233 234 235 236 238 239 240 239 240 243 247 248 246 248 255 259 258 258 257 257 259 258 259 262 265 266 267 269 271 273 276 277 279 279 280 281 282 283 285 286 288 291 292 293 295 296 297 299 301 303 304 305 307 307 309 309 309 309 310 312 314 314 315 316 317 317 316 315 314 312 312 312
225 225 226 227 228 229 229 230 230 231 232 232 233 234 235 236 236 236 237 239 240 240 241 242 244 244 243 243 250 257 259 257 256 258 259 260 262 264 266 267 267 270 273 276 278 280 281 282 283 283 284 284 285 287 288 290 291 293 294 295 296 298 300 302 303 304 305 305 306 307 307 307 309 310 312 313 314 314 314 314 314 313 312 311 311 311
225 227 228 229 230 230 230 230 231 232 232 233 233 235 236 237 237 236 236 236 238 240 243 244 245 245 245 244 246 252 256 256 257 259 261 262 263 264 265 266 267 270 272 274 276 278 280 281 283 284 285 285 286 287 288 290 291 292 293 294 295 297 299 301 302 303 303 303 303 304 305 306 307 308 310 312 313 313 313 312 312 311 311 310 310 309
225 227 229 231 232 232 232 232 232 233 233 234 235 236 237 238 237 237 237 237 238 239 242 245 245 245 246 245 245 248 252 255 257 258 260 261 263 263 264 266 267 269 271 272 274 275 277 279 281 283 285 285 286 286 287 289 290 292 292 293 294 296 298 299 300 301 302 302 301 302 303 304 305 307 308 310 311 311 311 311 311 310 309 309 308 308
225 227 229 230 232 233 233 233 233 234 234 235 236 237 238 239 239 239 239 240 241 242 243 244 245 245 246 247 247 247 250 254 256 257 258 261 263 264 265 266 267 269 271 274 274 275 276 277 279 281 283 284 285 286 287 288 289 290 291 291 292 295 297 298 298 299 300 300 300 301 302 303 304 305 306 308 309 310 310 310 309 309 308 308 307 306
225 227 228 229 230 232 233 234 234 234 235 235 236 238 239 240 241 241 241 242 243 244 245 246 246 246 247 249 249 248 249 252 255 256 259 262 265 265 266 266 266 268 270 273 274 274 274 276 277 278 280 282 284 286 287 288 288 288 288 289 290 293 295 296 297 298 299 299 299 299 300 301 302 303 305 306 308 309 309 309 308 308 307 306 305 305
225 227 228 228 230 231 232 233 234 235 235 236 238 239 241 242 243 244 244 244 245 245 246 247 248 248 247 249 250 249 249 250 253 257 261 263 265 266 266 266 266 266 268 269 271 272 272 273 275 276 278 281 283 285 287 287 287 287 287 287 289 291 294 295 296 297 298 298 298 298 298 299 300 301 303 305 306 307 307 307 307 306 306 305 304 304
225 227 228 229 230 230 232 233 234 236 237 238 240 241 242 243 244 245 246 246 247 247 247 247 248 249 248 249 250 250 249 250 253 257 260 263 264 265 266 267 266 266 266 268 269 271 272 273 274 275 277 280 282 284 285 286 286 286 286 286 288 290 292 293 295 296 297 297 297 297 298 298 299 301 302 304 305 305 305 305 305 305 304 304 303 303
227 228 229 229 230 231 233 234 236 237 238 240 242 243 244 244 245 246 246 247 247 247 247 247 248 249 249 249 250 251 250 251 254 257 259 261 263 265 266 267 267 267 267 268 269 271 273 273 274 275 277 279 281 283 284 285 285 285 286 286 287 289 291 293 294 295 296 296 297 297 298 298 299 300 301 302 303 303 303 303 303 303 303 302 302 302
228 229 230 231 232 233 235 237 238 239 240 241 242 244 244 245 245 246 246 247 247 246 247 247 248 249 249 249 251 252 252 253 255 258 259 261 262 264 265 266 267 267 268 269 270 271 273 273 273 274 275 277 280 281 283 284 285 285 285 285 286 288 290 292 293 294 295 296 297 297 298 298 299 300 300 301 301 301 302 302 302 302 302 301 301 301
227 229 231 232 234 236 237 238 239 240 240 240 241 241 242 242 242 243 244 246 246 247 247 248 249 250 251 251 251 252 253 254 255 257 258 260 261 262 263 265 266 266 267 269 270 271 272 273 273 273 275 276 279 280 282 283 283 284 284 285 286 287 289 291 292 293 295 296 296 297 297 298 298 299 299 299 300 300 300 300 301 301 301 300 300 300
227 228 229 231 233 234 236 237 238 239 239 240 241 241 242 242 243 243 244 245 247 247 248 249 250 251 251 251 252 253 254 256 256 256 258 259 260 261 262 264 264 265 267 269 270 270 271 272 272 273 275 277 279 280 282 283 283 283 283 284 285 286 288 290 291 293 294 295 296 296 297 297 298 298 298 298 298 299 299 299 300 300 300 300 299 299
228 229 229 230 232 233 234 235 237 238 239 240 241 241 242 243 244 244 245 246 247 247 248 249 250 251 251 251 253 254 255 256 256 256 258 259 260 261 262 263 263 265 267 268 269 270 270 271 272 274 276 278 280 281 282 283 283 283 283 284 284 285 286 288 290 291 292 294 295 296 296 296 297 297 297 297 297 298 298 299 299 299 299 299 299 298
227 229 229 230 232 233 234 234 235 236 238 239 240 240 241 241 242 243 244 245 246 247 248 249 249 250 250 251 252 253 254 255 256 257 259 260 261 261 262 262 263 264 266 267 268 269 270 271 273 275 277 280 281 282 283 284 284 283 283 283 283 284 285 287 288 290 291 293 294 295 295 296 296 296 296 296 297 297 298 298 298 299 299 299 298 298
226 227 228 230 231 232 233 233 234 235 236 237 238 238 239 240 241 242 244 245 246 247 247 247 248 249 250 250 251 252 253 254 255 257 259 260 261 262 262 262 262 263 264 266 267 269 271 272 274 276 278 280 282 283 283 284 283 283 283 282 283 283 284 285 287 289 291 292 293 294 294 295 295 296 296 296 296 297 297 298 298 298 298 298 298 298
225 227 228 229 230 231 232 233 234 234 235 235 236 237 238 240 242 243 244 245 245 246 246 245 247 248 250 250 250 251 252 254 256 257 258 260 261 262 263 263 263 263 264 265 267 269 271 272 274 276 278 280 281 282 282 283 283 282 282 282 282 282 283 285 286 288 290 291 292 293 294 294 295 295 295 295 295 296 297 297 297 297 297 297 296 296
224 226 227 229 230 231 232 233 234 234 234 235 236 237 239 241 243 243 244 244 244 245 245 245 246 248 249 251 251 251 253 255 257 258 260 261 262 263 263 264 264 265 265 266 267 269 271 272 274 275 277 279 280 281 281 281 281 282 282 282 282 282 283 284 286 288 289 290 291 292 293 293 294 294 294 294 294 295 295 296 296 296 296 295 295 295
224 225 226 228 229 230 231 232 233 234 234 235 236 238 240 242 243 244 245 245 245 246 246 246 246 247 249 252 253 254 255 257 259 260 261 262 262 263 263 264 264 265 266 267 268 270 272 273 274 275 276 277 278 278 279 280 280 281 281 281 281 282 283 284 286 287 288 290 291 291 292 292 292 292 292 292 293 294 294 295 295 294 294 294 294 294
224 225 226 227 228 230 231 232 233 234 235 236 237 239 241 242 244 246 247 248 248 249 249 249 248 249 251 254 256 257 258 259 260 260 261 262 262 263 264 264 264 265 266 268 270 271 273 274 274 275 275 276 276 277 277 278 279 280 280 280 281 281 282 284 285 286 287 289 289 290 291 291 291 291 291 291 292 293 293 293 293 293 293 293 294 294
225 226 226 227 228 229 230 231 232 234 235 236 238 240 242 243 245 246 247 248 249 249 250 250 251 252 253 255 257 258 258 259 259 260 260 261 262 263 264 264 265 266 267 269 271 272 273 274 274 274 274 275 276 276 277 278 278 279 279 280 280 280 282 283 284 285 286 288 289 289 290 290 290 290 290 291 291 292 293 293 293 293 293 294 294 295
227 228 228 229 229 230 231 232 233 235 236 238 240 242 243 245 245 246 246 247 247 248 250 251 252 252 252 254 256 257 258 259 260 260 261 262 263 263 264 265 265 266 268 269 270 271 272 273 273 273 274 275 276 277 278 278 279 279 280 280 280 280 281 282 283 285 286 287 288 289 289 289 289 289 290 290 291 292 292 292 293 293 293 293 294 294
227 229 230 230 231 232 233 234 236 237 239 239 240 241 242 243 244 244 245 245 246 248 250 251 252 251 251 253 255 257 258 259 261 261 262 263 263 263 264 265 265 266 267 268 269 270 270 271 272 273 274 275 276 278 278 279 280 280 280 280 280 280 281 282 283 285 286 287 288 288 288 288 288 289 289 290 291 291 291 292 292 292 293 293 293 294
228 229 230 231 232 233 234 235 236 237 237 238 239 240 241 241 242 242 243 244 246 247 248 250 251 250 251 253 255 257 258 259 260 261 262 262 262 263 263 264 265 265 266 266 267 268 269 270 271 272 274 275 276 278 278 279 280 280 280 280 280 281 282 283 284 285 286 287 287 287 287 287 288 288 289 289 290 290 291 291 291 292 292 293 293 294
229 230 231 232 233 234 235 236 236 237 238 239 239 240 241 242 242 243 244 245 246 247 249 251 252 252 253 253 254 255 256 257 258 259 260 260 261 262 263 263 263 264 265 266 267 268 269 270 271 272 273 275 276 277 278 278 279 279 280 280 281 282 283 284 285 286 286 287 287 287 287 287 288 288 289 289 290 290 290 291 291 292 292 293 294 294
230 230 231 232 233 234 235 236 237 238 239 240 240 241 242 243 244 245 246 247 249 250 251 252 252 253 253 252 252 253 254 255 256 257 258 259 260 261 262 262 263 264 265 267 268 269 270 271 272 272 273 274 275 276 276 277 277 278 279 280 281 283 284 285 285 286 286 286 286 286 287 287 287 288 288 289 290 290 291 291 292 292 293 293 294 294
231 231 232 232 233 234 235 236 236 238 239 239 240 241 242 243 244 245 246 248 249 250 251 251 251 252 252 252 252 252 253 254 255 256 257 258 259 261 262 263 265 266 267 268 269 269 270 271 272 272 273 274 274 275 276 276 277 278 279 281 282 283 284 284 284 284 285 285 285 286 286 287 287 288 288 289 289 290 290 291 291 291 292 292 293 293
232 232 232 233 234 234 235 236 237 238 239 239 240 241 241 242 244 245 246 248 249 250 250 250 250 250 251 252 252 252 252 253 254 255 257 258 260 261 263 264 265 266 267 268 269 269 270 270 271 272 273 274 274 275 276 277 278 279 281 282 282 283 283 283 283 283 283 284 284 285 285 286 287 288 288 288 289 289 289 290 290 291 291 291 292 292
232 232 232 233 234 234 235 236 237 237 238 239 240 241 242 243 245 246 247 248 248 249 248 248 249 249 250 251 251 252 253 254 255 256 257 259 260 262 263 264 265 266 266 267 268 268 269 270 271 272 273 274 274 275 277 278 279 280 281 281 282 282 282 282 282 282 282 283 283 284 285 285 286 286 287 287 288 288 289 289 290 290 290 291 291 292
232 232 232 233 233 234 234 236 237 237 238 238 240 241 243 244 245 246 247 247 247 248 248 249 249 249 249 250 252 253 254 255 256 257 258 259 261 262 263 264 265 265 266 267 268 269 270 271 271 272 273 274 275 277 278 279 279 280 280 280 281 281 281 281 281 281 282 282 283 283 284 285 285 286 286 287 287 287 288 289 289 290 290 290 291 291
233 234 234 234 234 234 234 235 236 237 238 239 240 242 243 244 245 246 247 247 248 249 250 251 251 252 251 252 253 254 256 257 258 259 260 261 262 263 263 264 264 265 266 267 268 269 270 271 272 273 274 275 276 277 278 278 279 279 279 279 279 279 280 280 280 281 281 282 283 283 284 284 285 285 286 286 287 287 288 288 289 289 290 290 290 291
234 235 235 236 236 236 236 236 237 238 239 240 241 242 244 245 246 247 248 249 250 251 253 253 253 254 254 254 254 255 256 258 259 261 262 263 263 264 264 264 264 265 266 267 268 269 270 271 272 273 274 275 275 276 277 277 277 277 277 277 278 278 279 279 280 280 281 282 282 283 283 284 284 285 285 286 286 287 287 288 288 289 289 290 290 290
234 235 236 236 237 237 237 238 239 240 240 240 241 242 245 246 248 249 249 250 251 252 252 253 253 254 255 255 256 257 258 259 261 262 263 264 264 264 264 264 265 265 266 267 267 269 270 271 272 273 273 274 274 274 275 275 275 275 276 276 277 278 278 279 279 280 281 281 282 282 283 283 284 284 285 285 286 286 287 288 288 288 289 289 289 290
235 236 237 237 238 238 238 239 240 240 240 240 241 242 244 246 248 249 249 249 250 251 253 254 255 255 256 257 257 258 258 259 260 261 263 264 264 264 264 264 265 265 266 267 267 268 269 270 271 271 272 272 272 273 273 273 274 275 275 276 276 277 278 278 279 279 280 281 281 282 282 283 283 284 285 285 286 287 287 287 288 288 288 289 289 289
237 237 238 239 240 240 240 240 241 241 241 241 242 242 243 245 246 247 247 247 248 251 253 254 254 255 255 256 256 256 257 257 258 259 261 262 262 262 263 263 264 265 266 267 268 268 269 269 270 270 271 271 272 272 273 273 274 275 275 276 276 277 277 278 279 279 280 280 281 282 282 283 284 284 285 286 286 287 287 287 287 288 288 288 289 289
237 238 239 240 240 241 242 242 243 243 243 242 242 242 243 244 245 246 247 247 247 250 252 252 253 254 254 255 255 255 256 256 257 257 258 260 261 262 263 264 265 266 267 267 268 268 269 269 270 270 271 271 272 273 273 274 274 275 275 276 276 277 278 278 279 280 280 281 282 282 283 284 284 285 285 286 286 286 286 287 287 287 288 288 289 289
237 238 239 241 242 242 243 244 244 244 244 243 242 243 244 245 246 247 248 249 249 250 252 252 252 253 254 254 255 256 256 257 257 258 259 260 262 263 264 265 266 266 267 267 268 269 269 270 270 271 271 272 272 273 274 274 275 275 276 276 277 278 278 279 280 280 281 282 282 283 284 284 284 285 285 285 286 286 287 287 287 288 288 289 289 290
237 238 239 240 241 242 243 244 245 245 244 244 244 244 245 246 247 248 250 251 250 251 252 252 252 253 254 254 255 256 257 258 259 260 261 262 263 264 265 266 266 267 267 268 268 269 269 270 270 271 272 272 273 273 274 274 275 276 276 277 278 278 279 280 280 281 282 282 283 283 284 284 285 285 285 286 286 287 287 288 288 288 289 289 290 290
237 238 239 240 241 242 243 244 245 245 245 245 246 246 247 248 249 250 251 251 250 250 250 251 253 254 255 256 257 258 259 260 261 261 262 262 263 264 265 266 267 267 268 268 269 269 270 270 271 272 272 273 273 274 274 275 276 276 277 278 278 279 280 280 281 282 282 283 283 284 284 285 285 286 286 287 287 287 288 288 288 289 289 289 289 290
239 239 239 240 241 242 243 244 245 245 245 246 247 247 248 248 249 250 250 250 250 250 250 251 253 255 257 258 258 259 260 260 261 261 262 262 263 264 265 266 266 267 268 269 270 270 271 272 272 273 273 274 274 275 275 276 277 277 278 279 279 280 281 281 282 283 283 284 284 285 285 286 286 287 287 287 287 288 288 288 289 289 289 289 289 289
240 241 241 241 242 243 243 244 245 245 245 245 245 246 246 247 248 248 249 250 251 252 253 253 254 256 257 258 259 260 260 261 261 262 262 263 263 264 265 266 267 268 269 270 271 271 272 273 273 274 274 275 276 276 277 277 278 278 279 280 281 281 282 283 283 284 284 285 285 285 286 286 287 287 287 287 288 288 288 288 288 288 289 289 289 289
240 242 243 243 243 244 244 244 245 244 244 244 245 246 247 247 248 249 250 251 252 253 254 254 255 255 256 258 259 260 261 262 263 263 264 264 265 265 266 267 268 269 269 270 271 272 273 273 274 275 275 276 277 277 278 279 279 280 281 281 282 282 283 283 283 284 284 284 285 285 286 286 286 287 287 287 287 287 288 288 288 288 288 289 289 290
240 241 242 243 244 244 245 245 245 246 245 245 246 246 248 248 249 250 250 251 252 253 253 254 255 256 257 258 258 259 261 262 263 264 265 266 266 267 267 268 268 269 270 270 271 272 273 273 274 275 276 276 277 278 278 279 280 280 281 281 281 282 282 283 283 284 284 285 285 285 286 286 286 286 286 287 287 287 287 287 288 288 289 289 290 290
239 241 242 243 244 245 246 247 247 247 247 247 247 248 248 249 250 251 252 252 253 254 254 255 255 256 257 258 259 260 261 262 263 264 265 266 266 267 268 268 269 269 270 270 271 272 272 273 274 274 275 276 277 277 278 278 279 279 280 280 281 281 282 283 283 283 284 284 285 285 285 285 285 286 286 286 287 287 287 288 289 289 289 290 290 291
240 241 242 243 244 246 246 247 248 248 249 249 249 249 250 250 251 252 253 253 254 255 255 256 256 257 258 259 260 261 261 262 263 264 264 265 266 266 267 267 268 269 269 270 271 271 272 273 274 274 275 276 276 277 277 278 279 279 280 280 281 281 282 282 283 283 283 284 284 284 285 285 285 286 286 287 287 288 288 289 289 290 290 290 291 291
240 241 242 243 245 246 246 247 248 249 250 250 250 251 251 251 252 253 253 254 255 256 256 257 258 259 259 260 261 261 262 262 263 263 264 265 265 266 267 268 268 269 270 271 271 272 272 273 274 274 275 276 276 277 277 278 278 279 280 280 281 281 282 282 283 283 284 284 284 285 285 286 286 286 287 287 288 288 289 289 289 290 290 290 291 291
239 240 242 243 244 245 246 247 248 249 250 250 251 251 252 252 253 254 254 255 256 257 258 258 259 259 259 260 260 261 262 262 263 263 264 264 265 266 267 268 269 269 270 271 271 272 273 273 274 275 275 276 276 277 278 278 279 279 280 280 281 281 282 282 283 283 284 284 284 285 285 286 286 287 287 287 288 288 288 289 289 290 290 290 290 291
240 241 242 243 244 245 246 247 248 249 250 251 252 252 253 254 254 255 255 256 256 257 257 258 258 259 259 260 260 261 261 262 262 263 264 265 265 266 267 268 268 269 270 270 271 272 272 273 273 274 275 275 276 277 278 278 279 279 280 280 281 281 282 282 283 283 284 284 285 285 285 286 286 286 287 287 287 288 288 288 289 289 290 291 291 292
Height
10751 10756 10764 10772 10777 10781 10784 10787 10791 10793 10791 10791 10792 10794 10799 10802 10806 10811 10814 10818 10821 10823 10825 10827 10830 10833 10835 10836 10839 10841 10843 10845 10847 10848 10849 10849 10849 10849 10850 10851 10851 10852 10850 10848 10848 10847 10847 10847 10847 10847 10846 10846 10846 10845 10845 10845 10844 10843 10843 10842 10842 10841 10840 10840 10840 10839 10838 10837 10836 10836 10835 10834 10833 10832 10831 10830 10829 10827 10826 10824 10822 10821 10819 10818 10816 10814
10746 10754 10761 10766 10770 10774 10776 10780 10783 10784 10784 10786 10788 10792 10795 10800 10806 10809 10811 10814 10816 10818 10820 10822 10825 10828 10831 10833 10835 10837 10839 10841 10842 10844 10845 10846 10846 10846 10847 10848 10848 10849 10848 10845 10844 10843 10844 10845 10845 10845 10844 10843 10843 10842 10842 10841 10840 10840 10839 10839 10838 10837 10837 10837 10836 10835 10835 10833 10833 10832 10831 10830 10829 10828 10827 10826 10825 10824 10822 10821 10819 10817 10816 10814 10812 10811
10742 10749 10754 10759 10764 10767 10768 10772 10775 10776 10778 10781 10784 10787 10792 10798 10802 10803 10806 10809 10810 10813 10815 10817 10820 10823 10827 10830 10832 10832 10834 10836 10838 10839 10841 10842 10842 10843 10843 10844 10844 10845 10844 10842 10840 10840 10841 10842 10842 10842 10841 10841 10840 10839 10839 10838 10837 10836 10835 10835 10835 10834 10833 10833 10832 10831 10830 10829 10829 10828 10827 10826 10825 10824 10823 10822 10820 10819 10818 10817 10815 10814 10812 10810 10808 10807
10739 10745 10751 10756 10758 10758 10761 10766 10769 10771 10774 10778 10781 10784 10789 10793 10794 10796 10801 10802 10805 10808 10810 10812 10816 10819 10824 10827 10828 10828 10828 10830 10832 10834 10836 10837 10838 10839 10839 10840 10840 10840 10840 10837 10836 10836 10837 10838 10838 10839 10838 10838 10837 10836 10835 10835 10834 10832 10832 10831 10831 10830 10829 10829 10828 10827 10826 10825 10825 10824 10823 10822 10821 10820 10819 10817 10816 10814 10813 10811 10810 10809 10807 10805 10803 10802
10733 10740 10746 10747 10746 10749 10755 10760 10763 10766 10769 10774 10777 10780 10785 10786 10787 10792 10795 10796 10800 10804 10805 10807 10811 10815 10820 10822 10824 10824 10824 10825 10827 10829 10831 10832 10834 10835 10835 10835 10836 10836 10835 10833 10831 10831 10832 10832 10833 10834 10834 10834 10833 10833 10832 10831 10830 10829 10828 10828 10827 10826 10825 10825 10824 10823 10822 10821 10820 10819 10819 10818 10816 10815 10815 10813 10811 10810 10808 10806 10805 10804 10802 10800 10798 10796
10727 10732 10734 10733 10736 10744 10750 10754 10758 10761 10765 10769 10772 10776 10779 10779 10783 10788 10790 10791 10796 10798 10800 10803 10806 10810 10815 10818 10819 10820 10820 10821 10823 10824 10826 10827 10829 10830 10830 10830 10831 10832 10831 10829 10828 10826 10826 10826 10827 10828 10828 10829 10829 10828 10827 10827 10826 10825 10824 10824 10823 10822 10821 10820 10819 10819 10818 10817 10816 10815 10814 10813 10812 10811 10810 10809 10807 10805 10803 10802 10800 10798 10796 10794 10792 10790
10722 10724 10724 10726 10733 10739 10743 10748 10752 10755 10759 10763 10768 10771 10771 10773 10779 10782 10783 10786 10790 10794 10796 10797 10800 10805 10810 10813 10815 10815 10815 10817 10818 10820 10821 10822 10824 10825 10825 10825 10826 10827 10827 10826 10825 10823 10822 10821 10820 10821 10821 10823 10824 10823 10823 10822 10821 10821 10820 10820 10819 10818 10817 10816 10815 10814 10813 10812 10811 10810 10809 10808 10807 10805 10804 10803 10802 10801 10799 10797 10795 10793 10791 10789 10787 10785
10716 10716 10719 10723 10729 10733 10738 10744 10747 10750 10754 10759 10763 10764 10765 10768 10773 10776 10778 10781 10785 10789 10789 10791 10796 10801 10804 10808 10810 10810 10810 10812 10813 10814 10816 10817 10819 10820 10820 10821 10821 10822 10822 10822 10821 10820 10818 10817 10816 10815 10815 10816 10817 10818 10818 10818 10817 10816 10816 10815 10815 10814 10813 10812 10811 10810 10809 10807 10806 10805 10804 10803 10801 10800 10799 10798 10796 10795 10793 10791 10790 10788 10786 10784 10782 10779
10708 10710 10714 10718 10722 10727 10734 10739 10741 10743 10748 10753 10756 10757 10758 10763 10767 10771 10773 10776 10781 10782 10783 10787 10791 10796 10799 10802 10804 10806 10807 10807 10807 10808 10810 10812 10814 10815 10816 10816 10816 10816 10817 10817 10817 10816 10815 10813 10812 10811 10810 10809 10810 10811 10812 10813 10813 10812 10811 10811 10810 10809 10808 10808 10807 10806 10804 10803 10801 10800 10798 10797 10796 10794 10793 10792 10790 10789 10787 10785 10784 10782 10780 10778 10775 10773
10698 10701 10706 10710 10715 10722 10728 10732 10732 10736 10742 10747 10749 10750 10754 10758 10762 10765 10768 10771 10774 10776 10780 10783 10785 10790 10795 10795 10798 10802 10803 10802 10801 10802 10805 10807 10808 10810 10810 10811 10812 10812 10812 10811 10811 10811 10810 10809 10808 10807 10806 10805 10804 10804 10805 10806 10807 10807 10806 10806 10805 10804 10803 10802 10802 10801 10799 10798 10797 10795 10793 10792 10790 10789 10787 10785 10784 10782 10780 10778 10776 10774 10772 10771 10769 10766
10689 10693 10698 10704 10711 10718 10723 10725 10725 10731 10738 10742 10743 10746 10750 10754 10757 10759 10763 10765 10767 10772 10778 10779 10778 10782 10788 10790 10792 10796 10797 10796 10796 10798 10800 10801 10802 10803 10804 10805 10806 10807 10807 10806 10806 10806 10805 10804 10803 10802 10802 10801 10800 10799 10799 10800 10800 10801 10801 10800 10800 10799 10798 10797 10796 10795 10794 10793 10791 10790 10788 10787 10785 10783 10781 10779 10777 10775 10773 10771 10769 10767 10765 10763 10761 10759
10683 10687 10695 10702 10710 10715 10717 10718 10721 10728 10734 10737 10739 10743 10746 10749 10750 10753 10756 10758 10763 10770 10775 10774 10771 10773 10783 10787 10786 10788 10791 10791 10792 10794 10795 10795 10795 10796 10797 10798 10799 10800 10801 10801 10801 10800 10800 10799 10798 10798 10797 10796 10796 10795 10794 10794 10794 10794 10794 10794 10794 10793 10792 10791 10790 10789 10788 10786 10785 10784 10782 10781 10779 10777 10775 10773 10771 10769 10766 10764 10762 10760 10758 10756 10754 10752
10681 10687 10694 10699 10705 10709 10711 10714 10718 10725 10731 10734 10736 10738 10740 10742 10744 10747 10751 10754 10759 10766 10769 10766 10762 10766 10778 10782 10778 10780 10785 10786 10787 10788 10789 10790 10789 10790 10790 10791 10792 10793 10794 10795 10795 10794 10794 10793 10793 10792 10792 10791 10790 10790 10789 10788 10788 10787 10787 10787 10787 10786 10785 10784 10783 10782 10781 10779 10778 10776 10775 10774 10773 10771 10769 10767 10764 10761 10759 10757 10755 10753 10751 10749 10747 10745
10678 10684 10689 10694 10699 10702 10705 10709 10715 10721 10727 10729 10730 10732 10732 10735 10738 10741 10745 10748 10752 10759 10761 10757 10754 10760 10772 10776 10773 10775 10778 10780 10782 10782 10783 10784 10783 10784 10784 10784 10786 10786 10787 10788 10788 10788 10788 10787 10787 10786 10785 10785 10785 10785 10784 10783 10782 10781 10781 10780 10780 10779 10778 10777 10776 10775 10773 10772 10770 10769 10768 10767 10766 10764 10762 10759 10757 10754 10752 10750 10747 10745 10743 10741 10739 10737
10673 10679 10685 10689 10693 10696 10699 10704 10709 10714 10716 10718 10720 10721 10722 10726 10731 10734 10738 10741 10744 10750 10751 10748 10749 10757 10767 10769 10768 10769 10770 10774 10776 10776 10776 10777 10776 10777 10778 10778 10779 10779 10780 10781 10781 10782 10781 10780 10780 10779 10779 10779 10778 10779 10778 10778 10777 10776 10775 10774 10773 10772 10771 10770 10769 10767 10766 10764 10763 10762 10761 10759 10758 10756 10753 10751 10749 10746 10744 10742 10739 10737 10735 10733 10731 10729
10667 10673 10679 10683 10686 10689 10692 10696 10700 10702 10703 10708 10711 10712 10714 10721 10725 10727 10730 10733 10736 10740 10742 10742 10747 10755 10761 10761 10761 10764 10765 10767 10768 10769 10769 10769 10769 10770 10771 10772 10772 10773 10774 10774 10774 10774 10774 10773 10772 10772 10772 10772 10772 10772 10772 10772 10771 10771 10770 10768 10767 10766 10764 10763 10761 10760 10758 10757 10755 10754 10753 10751 10750 10747 10745 10742 10740 10738 10736 10734 10732 10729 10727 10725 10722 10720
10661 10668 10673 10675 10678 10681 10684 10688 10691 10692 10696 10702 10704 10706 10711 10716 10717 10717 10721 10725 10727 10730 10735 10741 10745 10749 10752 10755 10757 10759 10759 10759 10759 10760 10760 10761 10763 10763 10764 10765 10766 10767 10767 10767 10767 10767 10766 10766 10765 10765 10765 10765 10765 10765 10765 10765 10764 10764 10763 10761 10760 10759 10757 10756 10754 10752 10750 10749 10748 10746 10745 10743 10741 10739 10736 10734 10731 10729 10727 10725 10723 10721 10719 10716 10714 10712
10654 10661 10664 10665 10668 10672 10675 10679 10681 10683 10690 10694 10696 10701 10704 10703 10704 10707 10711 10717 10721 10725 10732 10738 10740 10741 10744 10749 10753 10752 10750 10750 10750 10751 10754 10754 10755 10756 10757 10759 10760 10760 10760 10760 10759 10759 10758 10758 10758 10758 10758 10758 10758 10758 10758 10758 10757 10756 10755 10754 10753 10751 10750 10748 10746 10744 10743 10741 10739 10738 10736 10734 10731 10729 10727 10725 10722 10720 10718 10716 10714 10712 10709 10707 10705 10703
10645 10650 10652 10654 10659 10662 10664 10668 10671 10676 10682 10685 10689 10693 10692 10691 10696 10700 10704 10712 10717 10719 10726 10732 10732 10733 10738 10743 10746 10744 10741 10741 10742 10746 10748 10747 10746 10747 10749 10751 10752 10753 10753 10753 10753 10752 10752 10751 10751 10751 10751 10751 10751 10750 10750 10749 10748 10748 10747 10746 10745 10743 10742 10740 10739 10737 10735 10733 10731 10728 10727 10724 10722 10720 10717 10715 10713 10711 10709 10707 10704 10702 10700 10697 10695 10693
10638 10640 10643 10646 10650 10652 10655 10659 10664 10670 10675 10678 10681 10683 10683 10686 10692 10695 10699 10707 10710 10711 10717 10724 10725 10728 10732 10734 10737 10736 10732 10733 10737 10740 10740 10739 10739 10740 10741 10742 10743 10744 10745 10745 10745 10745 10745 10745 10744 10744 10744 10743 10742 10741 10741 10740 10739 10739 10738 10738 10737 10735 10734 10732 10730 10729 10726 10724 10722 10719 10717 10715 10713 10711 10708 10706 10704 10701 10699 10697 10695 10693 10691 10688 10686 10684
10628 10630 10635 10638 10640 10643 10648 10655 10660 10665 10667 10669 10673 10675 10677 10681 10684 10688 10692 10697 10701 10703 10709 10717 10720 10724 10726 10725 10726 10728 10727 10728 10731 10732 10731 10732 10733 10733 10733 10734 10734 10734 10735 10736 10737 10737 10737 10738 10738 10738 10737 10736 10734 10733 10732 10731 10730 10730 10729 10729 10728 10727 10726 10724 10722 10720 10718 10715 10713 10710 10708 10706 10704 10702 10699 10697 10695 10693 10691 10688 10686 10684 10682 10680 10677 10675
10617 10622 10626 10629 10632 10636 10643 10649 10651 10653 10655 10659 10664 10667 10669 10672 10675 10679 10683 10688 10694 10697 10703 10710 10713 10718 10720 10716 10717 10720 10721 10723 10724 10723 10723 10724 10724 10725 10726 10726 10726 10726 10726 10726 10727 10728 10728 10729 10730 10730 10729 10728 10727 10725 10724 10723 10723 10722 10721 10720 10720 10718 10717 10715 10713 10711 10708 10706 10704 10702 10699 10697 10695 10693 10690 10688 10686 10684 10682 10679 10677 10675 10673 10671 10668 10666
10606 10609 10614 10618 10622 10627 10633 10637 10639 10642 10646 10649 10654 10659 10661 10664 10668 10673 10678 10685 10689 10690 10696 10699 10703 10713 10716 10711 10710 10712 10713 10715 10716 10716 10716 10715 10716 10717 10717 10717 10718 10717 10717 10717 10717 10718 10718 10719 10719 10719 10719 10718 10718 10717 10717 10717 10716 10715 10714 10713 10712 10710 10708 10706 10704 10701 10699 10697 10695 10693 10691 10688 10686 10684 10682 10680 10677 10675 10672 10670 10668 10665 10663 10661 10658 10655
10593 10596 10601 10606 10610 10614 10620 10623 10626 10631 10636 10640 10648 10655 10657 10660 10666 10669 10673 10678 10678 10680 10686 10687 10696 10711 10712 10703 10703 10703 10703 10706 10707 10708 10709 10708 10708 10708 10708 10709 10708 10708 10709 10708 10708 10708 10708 10708 10708 10707 10707 10706 10707 10707 10708 10708 10708 10708 10707 10706 10704 10702 10700 10697 10695 10692 10690 10688 10686 10684 10681 10679 10677 10674 10672 10670 10667 10665 10662 10659 10656 10654 10651 10649 10646 10643
10584 10587 10592 10596 10599 10602 10606 10611 10618 10626 10634 10642 10649 10653 10654 10657 10660 10659 10662 10664 10665 10670 10675 10677 10690 10706 10703 10695 10696 10694 10693 10696 10697 10699 10701 10700 10700 10700 10699 10700 10699 10699 10700 10699 10699 10699 10698 10697 10696 10695 10695 10695 10696 10697 10697 10698 10698 10698 10698 10697 10695 10693 10690 10688 10686 10683 10681 10679 10677 10674 10671 10669 10666 10664 10662 10659 10656 10654 10651 10648 10645 10643 10640 10638 10635 10632
10571 10575 10582 10586 10590 10597 10604 10613 10624 10632 10636 10638 10641 10644 10645 10646 10645 10645 10647 10648 10654 10664 10667 10669 10684 10696 10693 10690 10690 10686 10685 10687 10687 10688 10690 10690 10690 10690 10690 10690 10691 10691 10690 10689 10689 10688 10687 10686 10685 10685 10685 10685 10686 10686 10686 10686 10686 10686 10686 10685 10684 10681 10679 10677 10676 10674 10672 10669 10666 10664 10661 10658 10656 10654 10651 10648 10646 10643 10640 10637 10635 10632 10629 10627 10624 10621
10560 10567 10574 10579 10587 10597 10605 10613 10619 10619 10617 10619 10625 10629 10630 10630 10630 10631 10631 10637 10649 10656 10656 10662 10674 10682 10686 10687 10685 10680 10677 10677 10677 10678 10679 10679 10679 10679 10680 10681 10681 10680 10679 10678 10677 10676 10676 10676 10676 10677 10677 10676 10676 10676 10676 10675 10674 10674 10673 10672 10671 10669 10668 10666 10664 10663 10661 10658 10655 10653 10650 10648 10645 10643 10640 10638 10635 10632 10629 10626 10624 10621 10618 10615 10612 10609
10555 10563 10571 10578 10586 10594 10599 10603 10604 10603 10604 10610 10616 10617 10617 10618 10619 10618 10622 10634 10643 10643 10649 10662 10667 10672 10682 10682 10675 10672 10670 10668 10669 10668 10668 10667 10667 10668 10669 10668 10668 10668 10667 10667 10667 10666 10667 10667 10668 10668 10668 10668 10668 10667 10666 10665 10663 10662 10661 10660 10659 10658 10656 10654 10652 10650 10648 10645 10642 10640 10638 10635 10633 10631 10628 10625 10623 10620 10617 10614 10611 10608 10605 10602 10599 10596
10550 10560 10569 10574 10579 10585 10589 10592 10594 10595 10598 10603 10606 10608 10610 10610 10611 10613 10621 10632 10635 10636 10650 10663 10659 10663 10673 10669 10662 10664 10662 10659 10659 10657 10656 10655 10655 10656 10656 10655 10656 10657 10657 10658 10657 10657 10657 10658 10658 10658 10658 10659 10658 10657 10656 10655 10654 10652 10651 10651 10649 10648 10645 10643 10640 10637 10634 10632 10630 10627 10625 10623 10621 10618 10615 10612 10610 10607 10604 10602 10599 10596 10593 10590 10587 10584
10545 10556 10564 10566 10570 10575 10577 10580 10584 10586 10588 10591 10595 10599 10601 10601 10604 10609 10616 10625 10629 10633 10648 10654 10648 10654 10660 10653 10651 10653 10649 10648 10649 10646 10644 10644 10644 10646 10645 10645 10646 10647 10647 10647 10646 10647 10647 10647 10647 10647 10647 10647 10647 10646 10645 10644 10643 10643 10642 10641 10640 10638 10635 10632 10629 10625 10622 10620 10618 10616 10614 10611 10608 10606 10603 10600 10598 10595 10592 10590 10587 10585 10582 10579 10576 10573
10538 10549 10555 10557 10560 10562 10565 10570 10574 10575 10578 10581 10583 10586 10589 10591 10596 10603 10614 10622 10624 10627 10637 10637 10634 10643 10647 10639 10637 10637 10635 10637 10637 10634 10633 10635 10637 10639 10638 10637 10638 10637 10637 10636 10635 10636 10636 10635 10635 10636 10636 10636 10635 10634 10633 10633 10632 10632 10631 10630 10628 10626 10623 10620 10617 10614 10612 10609 10607 10605 10602 10599 10597 10594 10591 10589 10586 10583 10581 10579 10577 10574 10572 10569 10565 10562
10527 10536 10543 10545 10546 10551 10558 10561 10563 10565 10566 10565 10568 10576 10583 10589 10595 10604 10612 10614 10611 10613 10618 10616 10620 10635 10636 10624 10620 10622 10622 10624 10625 10625 10627 10629 10630 10631 10630 10628 10628 10627 10626 10625 10625 10625 10624 10624 10625 10625 10625 10624 10623 10623 10623 10623 10622 10621 10620 10617 10615 10612 10610 10607 10605 10603 10601 10599 10597 10595 10592 10589 10587 10584 10581 10578 10575 10572 10570 10568 10565 10563 10560 10557 10554 10551
10513 10521 10529 10531 10532 10541 10549 10549 10551 10552 10546 10548 10564 10577 10582 10588 10593 10596 10597 10597 10597 10598 10601 10603 10612 10623 10620 10611 10610 10612 10613 10613 10615 10615 10616 10618 10622 10624 10623 10621 10618 10616 10615 10615 10616 10615 10614 10614 10614 10614 10614 10613 10613 10613 10612 10612 10610 10608 10607 10604 10602 10599 10597 10594 10593 10590 10588 10587 10585 10583 10580 10578 10575 10572 10569 10566 10563 10561 10558 10556 10554 10551 10549 10546 10542 10538
10505 10512 10519 10521 10522 10530 10537 10538 10537 10530 10529 10550 10574 10578 10577 10581 10583 10580 10582 10586 10588 10587 10590 10597 10605 10608 10607 10607 10607 10605 10603 10602 10601 10602 10604 10609 10613 10615 10614 10611 10608 10606 10607 10607 10606 10605 10604 10604 10603 10603 10605 10604 10604 10603 10601 10600 10598 10596 10594 10591 10588 10586 10584 10581 10580 10577 10576 10574 10572 10570 10568 10565 10563 10560 10557 10554 10551 10549 10546 10544 10541 10539 10536 10534 10530 10527
10499 10504 10509 10512 10513 10519 10528 10529 10520 10517 10537 10565 10575 10570 10570 10573 10572 10570 10575 10582 10583 10582 10585 10590 10595 10597 10597 10596 10595 10593 10594 10592 10588 10590 10595 10599 10602 10603 10602 10600 10598 10598 10598 10597 10596 10595 10594 10594 10593 10593 10594 10593 10593 10592 10590 10588 10586 10583 10581 10578 10576 10574 10572 10569 10568 10565 10563 10562 10559 10558 10555 10552 10550 10547 10545 10542 10539 10537 10534 10531 10529 10527 10524 10522 10519 10515
10489 10492 10497 10500 10501 10507 10516 10517 10512 10522 10546 10561 10561 10563 10567 10566 10564 10565 10570 10576 10576 10574 10574 10577 10582 10586 10584 10583 10584 10585 10587 10584 10579 10581 10586 10588 10589 10587 10585 10586 10587 10585 10585 10585 10586 10586 10586 10585 10584 10583 10582 10581 10581 10580 10578 10576 10574 10571 10568 10566 10564 10562 10560 10558 10556 10554 10552 10550 10547 10545 10543 10540 10538 10535 10532 10530 10527 10524 10521 10518 10516 10514 10511 10509 10506 10502
10482 10484 10487 10488 10491 10496 10504 10507 10509 10518 10533 10544 10553 10563 10564 10559 10558 10555 10554 10562 10565 10561 10563 10569 10573 10576 10573 10572 10575 10574 10572 10571 10570 10575 10580 10576 10571 10567 10568 10571 10572 10571 10572 10575 10576 10577 10577 10575 10574 10572 10570 10569 10567 10566 10565 10563 10561 10559 10557 10555 10553 10550 10548 10545 10543 10541 10540 10538 10535 10533 10531 10528 10526 10523 10520 10517 10515 10512 10508 10505 10502 10500 10497 10496 10493 10489
10474 10476 10479 10480 10483 10487 10491 10497 10501 10506 10525 10545 10554 10558 10554 10547 10545 10538 10532 10545 10558 10557 10557 10560 10561 10561 10559 10557 10558 10557 10554 10555 10564 10573 10571 10557 10548 10550 10555 10559 10559 10559 10562 10565 10565 10565 10564 10562 10561 10559 10557 10556 10554 10553 10552 10550 10549 10546 10544 10542 10540 10537 10535 10533 10531 10529 10527 10524 10522 10520 10518 10515 10513 10510 10507 10504 10501 10498 10495 10491 10488 10485 10483 10480 10478 10475
10464 10467 10470 10469 10472 10478 10481 10488 10494 10504 10525 10543 10544 10542 10539 10533 10531 10522 10515 10536 10558 10553 10543 10544 10546 10545 10542 10540 10540 10539 10537 10544 10557 10565 10554 10537 10533 10540 10546 10548 10549 10550 10552 10552 10552 10551 10550 10548 10546 10544 10543 10542 10540 10540 10539 10537 10535 10533 10531 10528 10526 10523 10521 10519 10517 10515 10512 10510 10508 10506 10504 10501 10499 10496 10494 10491 10488 10485 10481 10478 10474 10471 10468 10465 10462 10460
10455 10458 10460 10459 10464 10473 10476 10479 10486 10498 10517 10529 10529 10529 10527 10521 10517 10507 10506 10535 10556 10541 10527 10531 10533 10529 10525 10523 10524 10525 10527 10535 10545 10547 10539 10529 10527 10532 10536 10537 10537 10537 10538 10539 10538 10537 10535 10533 10532 10530 10528 10527 10526 10525 10524 10523 10521 10519 10516 10514 10512 10509 10507 10505 10503 10500 10498 10496 10493 10491 10489 10487 10484 10482 10480 10477 10474 10470 10466 10463 10460 10456 10452 10449 10445 10443
10443 10446 10449 10451 10456 10464 10466 10468 10476 10489 10506 10516 10517 10516 10513 10507 10502 10500 10510 10532 10538 10522 10514 10517 10514 10511 10510 10510 10512 10515 10518 10523 10529 10533 10531 10525 10521 10522 10525 10524 10523 10523 10524 10524 10523 10523 10521 10519 10517 10516 10514 10514 10512 10511 10509 10508 10506 10504 10502 10499 10497 10495 10493 10491 10488 10486 10484 10482 10479 10476 10474 10472 10469 10467 10464 10461 10459 10455 10451 10446 10443 10440 10437 10433 10429 10426
10435 10438 10440 10444 10448 10452 10457 10459 10464 10478 10498 10508 10505 10503 10502 10497 10496 10501 10508 10511 10507 10501 10501 10500 10498 10498 10499 10500 10504 10507 10509 10513 10517 10520 10519 10515 10511 10511 10511 10510 10509 10509 10509 10509 10508 10508 10506 10505 10503 10502 10500 10499 10498 10496 10495 10494 10492 10490 10488 10485 10483 10481 10479 10477 10475 10473 10470 10467 10465 10462 10459 10456 10453 10451 10448 10445 10442 10439 10435 10430 10426 10423 10420 10416 10413 10410
10426 10426 10427 10433 10438 10440 10445 10448 10454 10474 10497 10500 10490 10488 10490 10486 10485 10488 10487 10483 10483 10485 10488 10490 10492 10492 10491 10493 10495 10496 10498 10501 10502 10503 10504 10502 10500 10500 10499 10498 10497 10495 10494 10494 10493 10492 10491 10490 10488 10487 10485 10484 10483 10482 10481 10479 10478 10476 10474 10472 10470 10467 10465 10463 10461 10458 10455 10452 10449 10446 10443 10440 10437 10434 10431 10428 10424 10421 10418 10414 10410 10406 10402 10398 10395 10392
10412 10413 10416 10425 10430 10429 10433 10441 10453 10471 10484 10479 10469 10470 10472 10469 10467 10469 10469 10469 10471 10475 10479 10485 10487 10483 10481 10482 10481 10482 10485 10487 10487 10489 10490 10489 10488 10487 10487 10487 10485 10483 10482 10480 10478 10477 10476 10474 10473 10471 10470 10469 10468 10467 10466 10464 10463 10461 10459 10457 10455 10453 10450 10448 10446 10443 10440 10437 10434 10431 10428 10425 10421 10418 10414 10410 10407 10404 10401 10397 10393 10389 10384 10379 10376 10372
10404 10406 10410 10417 10420 10418 10423 10435 10445 10454 10459 10458 10456 10457 10456 10455 10456 10459 10459 10459 10461 10465 10469 10472 10471 10471 10471 10471 10470 10471 10473 10471 10472 10474 10475 10475 10475 10475 10474 10474 10473 10471 10470 10467 10466 10464 10462 10460 10459 10457 10456 10455 10453 10452 10450 10449 10448 10447 10445 10442 10440 10438 10436 10433 10431 10428 10425 10422 10418 10415 10413 10409 10405 10401 10397 10393 10389 10386 10382 10378 10375 10371 10366 10361 10356 10353
10395 10398 10399 10402 10405 10406 10413 10425 10434 10438 10442 10446 10447 10444 10443 10444 10446 10446 10446 10446 10449 10454 10457 10457 10458 10458 10459 10458 10459 10460 10460 10459 10460 10460 10460 10461 10461 10460 10460 10460 10459 10458 10457 10455 10454 10452 10450 10448 10447 10445 10443 10442 10440 10439 10437 10436 10434 10433 10431 10428 10425 10423 10421 10419 10416 10413 10410 10406 10403 10400 10397 10393 10389 10384 10380 10376 10371 10367 10363 10360 10356 10353 10349 10343 10338 10334
10385 10388 10388 10391 10395 10399 10408 10418 10423 10424 10427 10431 10432 10431 10432 10432 10432 10432 10434 10435 10438 10442 10444 10444 10445 10445 10444 10446 10447 10449 10450 10451 10450 10449 10448 10447 10446 10445 10445 10444 10443 10444 10443 10442 10441 10440 10438 10437 10435 10433 10432 10430 10428 10427 10425 10423 10421 10419 10416 10414 10412 10410 10407 10404 10401 10398 10394 10391 10388 10384 10380 10377 10372 10368 10364 10358 10354 10349 10345 10341 10337 10334 10330 10324 10317 10314
10376 10378 10380 10384 10388 10393 10401 10408 10408 10408 10412 10416 10417 10418 10420 10419 10419 10420 10422 10423 10426 10429 10430 10432 10433 10433 10435 10436 10437 10438 10440 10440 10439 10438 10436 10433 10432 10431 10430 10430 10430 10430 10430 10429 10429 10428 10426 10424 10422 10421 10419 10417 10416 10414 10411 10409 10407 10404 10402 10400 10398 10395 10393 10390 10386 10383 10379 10376 10371 10367 10363 10359 10355 10351 10346 10341 10336 10332 10327 10323 10319 10315 10310 10303 10296 10292
10365 10368 10373 10377 10380 10384 10390 10395 10395 10396 10399 10401 10402 10403 10405 10405 10405 10407 10410 10412 10414 10416 10419 10421 10423 10424 10425 10425 10425 10426 10426 10426 10426 10425 10423 10421 10419 10418 10417 10417 10418 10417 10417 10417 10416 10414 10413 10412 10409 10407 10406 10403 10401 10399 10397 10395 10393 10390 10388 10386 10383 10380 10377 10373 10370 10367 10363 10359 10354 10350 10346 10341 10336 10332 10328 10323 10320 10316 10311 10306 10301 10297 10293 10287 10277 10270
10357 10361 10365 10367 10368 10373 10379 10382 10382 10383 10384 10385 10386 10387 10389 10391 10393 10397 10400 10402 10403 10405 10407 10409 10410 10411 10411 10411 10412 10412 10411 10411 10411 10410 10408 10408 10407 10406 10406 10407 10406 10405 10404 10403 10401 10401 10400 10398 10396 10394 10391 10389 10387 10385 10383 10381 10378 10375 10373 10370 10367 10364 10361 10357 10354 10350 10345 10341 10337 10333 10329 10324 10319 10314 10310 10306 10303 10300 10296 10291 10285 10278 10273 10269 10263 10255
10349 10353 10355 10355 10357 10363 10368 10370 10370 10370 10371 10372 10374 10376 10377 10379 10381 10385 10388 10389 10389 10390 10391 10392 10394 10395 10396 10396 10396 10397 10397 10396 10395 10395 10395 10395 10395 10395 10395 10394 10393 10392 10391 10389 10388 10388 10386 10384 10383 10381 10378 10376 10374 10372 10369 10366 10363 10360 10358 10355 10351 10348 10345 10341 10338 10333 10329 10325 10321 10317 10312 10307 10302 10298 10293 10288 10284 10281 10278 10276 10271 10264 10255 10248 10244 10240